Location: Unspecified
(52.4292°N, 19.3359°E)
Time: 23:48:54
(UTC+02:00)

A-11 Canister half - Pass Details

Date: 28 May 2024
Orbit: 1515 x 1685 km, 47.2° (Epoch: 19 June)

Event Time Altitude Azimuth Distance (km) Brightness Sun altitude
Rises 02:53:50 0° 245° (WSW) 4,785 - -10.5°
Exits shadow 02:55:34 - 243° (WSW) 4,230 10.8 -10.4°
Reaches altitude 10° 02:57:00 10° 242° (WSW) 3,778 10.5 -10.3°
Maximum altitude 03:06:16 59° 166° (SSE) 1,740 9.1 -9.5°
Drops below altitude 10° 03:15:18 10° 90° (E) 3,685 11.5 -8.7°
Sets 03:18:21 0° 87° (E) 4,661 12.2 -8.4°
